| time (UTC) | temp C | wind direction | speed KPH | gust KPH | rain 1hr cm | rain 24hr cm | rain mn cm | humidity % | barometer mb |
| 20260510164535 | 26 | 199 | 0.0 | 4.8 | 0.00 | 0.00 | 0.00 | 40 | 1012.1 |
| 20260510164027 | 26 | 209 | 0.0 | 8.0 | 0.00 | 0.00 | 0.00 | 43 | 1012.2 |
| 20260510163527 | 26 | 213 | 1.6 | 8.0 | 0.00 | 0.00 | 0.00 | 42 | 1012.3 |
| 20260510163028 | 26 | 145 | 3.2 | 8.0 | 0.00 | 0.00 | 0.00 | 42 | 1012.3 |
| 20260510162525 | 26 | 336 | 1.6 | 8.0 | 0.00 | 0.00 | 0.00 | 42 | 1012.2 |
| 20260510162026 | 26 | 348 | 1.6 | 11.3 | 0.00 | 0.00 | 0.00 | 43 | 1012.4 |
| 20260510161524 | 25 | 196 | 1.6 | 11.3 | 0.00 | 0.00 | 0.00 | 45 | 1012.5 |
| 20260510161022 | 25 | 263 | 1.6 | 6.4 | 0.00 | 0.00 | 0.00 | 45 | 1012.4 |
| 20260510160521 | 25 | 191 | 0.0 | 6.4 | 0.00 | 0.00 | 0.00 | 44 | 1012.5 |
| 20260510160020 | 25 | 168 | 1.6 | 6.4 | 0.00 | 0.00 | 0.00 | 46 | 1012.6 |
| 20260510155518 | 25 | 21 | 1.6 | 8.0 | 0.00 | 0.00 | 0.00 | 44 | 1012.5 |
| 20260510155019 | 25 | 67 | 1.6 | 8.0 | 0.00 | 0.00 | 0.00 | 46 | 1012.5 |
| 20260510154517 | 24 | 181 | 1.6 | 6.4 | 0.00 | 0.00 | 0.00 | 46 | 1012.5 |
| 20260510154013 | 23 | 178 | 0.0 | 6.4 | 0.00 | 0.00 | 0.00 | 49 | 1012.5 |
| 20260510153512 | 23 | 189 | 1.6 | 6.4 | 0.00 | 0.00 | 0.00 | 50 | 1012.6 |
| 20260510153018 | 23 | 219 | 1.6 | 9.7 | 0.00 | 0.00 | 0.00 | 50 | 1012.5 |
| 20260510152514 | 23 | 167 | 0.0 | 9.7 | 0.00 | 0.00 | 0.00 | 50 | 1012.6 |
| 20260510152008 | 22 | 145 | 3.2 | 8.0 | 0.00 | 0.00 | 0.00 | 51 | 1012.6 |
| 20260510151508 | 22 | 165 | 1.6 | 9.7 | 0.00 | 0.00 | 0.00 | 52 | 1012.6 |
| 20260510151005 | 22 | 348 | 0.0 | 11.3 | 0.00 | 0.00 | 0.00 | 51 | 1012.6 |
| 20260510150504 | 22 | 161 | 0.0 | 11.3 | 0.00 | 0.00 | 0.00 | 52 | 1012.7 |
| 20260510150002 | 22 | 188 | 1.6 | 6.4 | 0.00 | 0.00 | 0.00 | 54 | 1012.8 |
| 20260510145502 | 21 | 184 | 1.6 | 11.3 | 0.00 | 0.00 | 0.00 | 54 | 1012.6 |
| 20260510145001 | 21 | 98 | 1.6 | 11.3 | 0.00 | 0.00 | 0.00 | 55 | 1012.7 |
| 20260510144603 | 21 | 199 | 1.6 | 9.7 | 0.00 | 0.00 | 0.00 | 55 | 1012.8 |
| 20260510144058 | 21 | 152 | 1.6 | 11.3 | 0.00 | 0.00 | 0.00 | 57 | 1012.8 |
| 20260510143556 | 20 | 186 | 4.8 | 11.3 | 0.00 | 0.00 | 0.00 | 57 | 1012.8 |
| 20260510143056 | 20 | 200 | 1.6 | 6.4 | 0.00 | 0.00 | 0.00 | 58 | 1012.8 |
| 20260510142553 | 20 | 24 | 0.0 | 6.4 | 0.00 | 0.00 | 0.00 | 60 | 1012.9 |
| 20260510142052 | 20 | 55 | 1.6 | 6.4 | 0.00 | 0.00 | 0.00 | 61 | 1012.7 |
| 20260510141551 | 19 | 161 | 3.2 | 8.0 | 0.00 | 0.00 | 0.00 | 62 | 1012.8 |
| 20260510141050 | 19 | 333 | 0.0 | 6.4 | 0.00 | 0.00 | 0.00 | 64 | 1012.6 |
| 20260510140547 | 18 | 146 | 1.6 | 6.4 | 0.00 | 0.00 | 0.00 | 65 | 1012.8 |
| 20260510140046 | 18 | 209 | 0.0 | 8.0 | 0.00 | 0.00 | 0.00 | 67 | 1013.0 |
| 20260510135546 | 17 | 162 | 1.6 | 8.0 | 0.00 | 0.00 | 0.00 | 68 | 1013.1 |
| 20260510135045 | 17 | 178 | 1.6 | 8.0 | 0.00 | 0.00 | 0.00 | 71 | 1013.2 |
| 20260510134550 | 16 | 186 | 0.0 | 3.2 | 0.00 | 0.00 | 0.00 | 74 | 1013.0 |
| 20260510134040 | 16 | 181 | 0.0 | 6.4 | 0.00 | 0.00 | 0.00 | 75 | 1013.0 |
| 20260510133541 | 15 | 178 | 0.0 | 6.4 | 0.00 | 0.00 | 0.00 | 77 | 1012.9 |
| 20260510133037 | 15 | 169 | 0.0 | 9.7 | 0.00 | 0.00 | 0.00 | 78 | 1013.1 |
| 20260510132535 | 13 | 166 | 1.6 | 9.7 | 0.00 | 0.00 | 0.00 | 77 | 1013.0 |
| 20260510132034 | 13 | 163 | 0.0 | 9.7 | 0.00 | 0.00 | 0.00 | 74 | 1013.0 |
| 20260510131534 | 13 | 185 | 0.0 | 4.8 | 0.00 | 0.00 | 0.00 | 72 | 1013.2 |
| 20260510131033 | 12 | 195 | 0.0 | 3.2 | 0.00 | 0.00 | 0.00 | 72 | 1013.0 |
| 20260510130532 | 12 | 195 | 0.0 | 3.2 | 0.00 | 0.00 | 0.00 | 73 | 1013.0 |
| 20260510130033 | 12 | 195 | 0.0 | 4.8 | 0.00 | 0.00 | 0.00 | 73 | 1013.0 |
| 20260510125532 | 12 | 195 | 0.0 | 4.8 | 0.00 | 0.00 | 0.00 | 73 | 1012.9 |
| 20260510125030 | 11 | 195 | 0.0 | 4.8 | 0.00 | 0.00 | 0.00 | 73 | 1013.0 |
| 20260510124529 | 11 | 195 | 0.0 | 4.8 | 0.00 | 0.00 | 0.00 | 74 | 1012.9 |
| 20260510124031 | 11 | 195 | 0.0 | 3.2 | 0.00 | 0.00 | 0.00 | 74 | 1013.0 |
| 20260510123529 | 10 | 195 | 0.0 | 1.6 | 0.00 | 0.00 | 0.00 | 74 | 1012.8 |
| 20260510123032 | 10 | 195 | 0.0 | 0.0 | 0.00 | 0.00 | 0.00 | 74 | 1012.8 |
| 20260510122527 | 10 | 195 | 0.0 | 0.0 | 0.00 | 0.00 | 0.00 | 74 | 1012.8 |
| 20260510122030 | 10 | 195 | 0.0 | 0.0 | 0.00 | 0.00 | 0.00 | 74 | 1012.8 |
| 20260510121527 | 10 | 195 | 0.0 | 0.0 | 0.00 | 0.00 | 0.00 | 74 | 1012.8 |
| 20260510121029 | 9 | 195 | 0.0 | 0.0 | 0.00 | 0.00 | 0.00 | 74 | 1012.7 |
| 20260510120527 | 9 | 195 | 0.0 | 0.0 | 0.00 | 0.00 | 0.00 | 74 | 1012.8 |
| 20260510120030 | 9 | 195 | 0.0 | 0.0 | 0.00 | 0.00 | 0.00 | 74 | 1012.8 |
| 20260510115526 | 8 | 195 | 0.0 | 0.0 | 0.00 | 0.00 | 0.00 | 74 | 1012.8 |
| 20260510115025 | 8 | 195 | 0.0 | 0.0 | 0.00 | 0.00 | 0.00 | 74 | 1012.7 |
| 20260510114524 | 8 | 195 | 0.0 | 0.0 | 0.00 | 0.00 | 0.00 | 75 | 1012.6 |
| 20260510114024 | 8 | 195 | 0.0 | 0.0 | 0.00 | 0.00 | 0.00 | 75 | 1012.6 |
| 20260510113523 | 8 | 195 | 0.0 | 0.0 | 0.00 | 0.00 | 0.00 | 75 | 1012.4 |
| 20260510113023 | 8 | 195 | 0.0 | 0.0 | 0.00 | 0.00 | 0.00 | 75 | 1012.7 |
| 20260510112523 | 8 | 195 | 0.0 | 0.0 | 0.00 | 0.00 | 0.00 | 75 | 1012.6 |
| 20260510112023 | 8 | 195 | 0.0 | 0.0 | 0.00 | 0.00 | 0.00 | 75 | 1012.5 |
| 20260510111521 | 8 | 195 | 0.0 | 0.0 | 0.00 | 0.00 | 0.00 | 76 | 1012.3 |
| 20260510111020 | 8 | 195 | 0.0 | 0.0 | 0.00 | 0.00 | 0.00 | 76 | 1012.3 |
| 20260510110524 | 8 | 195 | 0.0 | 0.0 | 0.00 | 0.00 | 0.00 | 76 | 1012.2 |
| 20260510110025 | 8 | 195 | 0.0 | 0.0 | 0.00 | 0.00 | 0.00 | 76 | 1012.0 |
| 20260510105519 | 8 | 195 | 0.0 | 0.0 | 0.00 | 0.00 | 0.00 | 76 | 1012.0 |
| 20260510105018 | 8 | 195 | 0.0 | 0.0 | 0.00 | 0.00 | 0.00 | 76 | 1011.9 |
| 20260510104518 | 8 | 195 | 0.0 | 0.0 | 0.00 | 0.00 | 0.00 | 77 | 1011.8 |
| 20260510104016 | 8 | 195 | 0.0 | 0.0 | 0.00 | 0.00 | 0.00 | 77 | 1011.8 |
| 20260510103516 | 8 | 195 | 0.0 | 0.0 | 0.00 | 0.00 | 0.00 | 77 | 1011.7 |
| 20260510103017 | 8 | 195 | 0.0 | 0.0 | 0.00 | 0.00 | 0.00 | 77 | 1011.7 |
| 20260510102517 | 8 | 195 | 0.0 | 0.0 | 0.00 | 0.00 | 0.00 | 77 | 1011.6 |
| 20260510102015 | 8 | 195 | 0.0 | 0.0 | 0.00 | 0.00 | 0.00 | 77 | 1011.5 |
| 20260510101515 | 8 | 195 | 0.0 | 0.0 | 0.00 | 0.00 | 0.00 | 77 | 1011.6 |
| 20260510101014 | 8 | 195 | 0.0 | 0.0 | 0.00 | 0.00 | 0.00 | 77 | 1011.4 |
| 20260510100514 | 8 | 195 | 0.0 | 0.0 | 0.00 | 0.00 | 0.00 | 77 | 1011.3 |
| 20260510100014 | 8 | 195 | 0.0 | 0.0 | 0.00 | 0.00 | 0.00 | 77 | 1011.3 |
| 20260510095514 | 8 | 195 | 0.0 | 0.0 | 0.00 | 0.00 | 0.00 | 77 | 1011.3 |
| 20260510095013 | 8 | 195 | 0.0 | 0.0 | 0.00 | 0.00 | 0.00 | 77 | 1011.2 |
| 20260510094515 | 8 | 195 | 0.0 | 0.0 | 0.00 | 0.00 | 0.00 | 77 | 1011.5 |
| 20260510094011 | 8 | 195 | 0.0 | 0.0 | 0.00 | 0.00 | 0.00 | 77 | 1011.3 |
| 20260510093515 | 8 | 195 | 0.0 | 0.0 | 0.00 | 0.00 | 0.00 | 77 | 1011.1 |
| 20260510093010 | 8 | 195 | 0.0 | 0.0 | 0.00 | 0.00 | 0.00 | 77 | 1011.0 |
| 20260510092509 | 8 | 195 | 0.0 | 0.0 | 0.00 | 0.00 | 0.00 | 78 | 1010.9 |
| 20260510092009 | 8 | 195 | 0.0 | 0.0 | 0.00 | 0.00 | 0.00 | 78 | 1010.8 |
| 20260510091508 | 8 | 195 | 0.0 | 0.0 | 0.00 | 0.00 | 0.00 | 78 | 1010.9 |
| 20260510091007 | 8 | 195 | 0.0 | 0.0 | 0.00 | 0.00 | 0.00 | 78 | 1010.7 |
| 20260510090507 | 8 | 195 | 0.0 | 0.0 | 0.00 | 0.00 | 0.00 | 78 | 1010.8 |
| 20260510090007 | 8 | 195 | 0.0 | 0.0 | 0.00 | 0.00 | 0.00 | 78 | 1010.7 |
| 20260510085507 | 8 | 195 | 0.0 | 0.0 | 0.00 | 0.00 | 0.00 | 78 | 1010.9 |
| 20260510085008 | 8 | 195 | 0.0 | 0.0 | 0.00 | 0.00 | 0.00 | 78 | 1010.6 |
| 20260510084510 | 8 | 195 | 0.0 | 0.0 | 0.00 | 0.00 | 0.00 | 78 | 1010.7 |
| 20260510084009 | 8 | 195 | 0.0 | 0.0 | 0.00 | 0.00 | 0.00 | 78 | 1010.6 |
| 20260510083504 | 8 | 195 | 0.0 | 0.0 | 0.00 | 0.00 | 0.00 | 78 | 1010.6 |
| 20260510083003 | 9 | 195 | 0.0 | 0.0 | 0.00 | 0.00 | 0.00 | 78 | 1010.6 |
| 20260510082503 | 9 | 195 | 0.0 | 0.0 | 0.00 | 0.00 | 0.00 | 78 | 1010.6 |
| 20260510082005 | 9 | 195 | 0.0 | 0.0 | 0.00 | 0.00 | 0.00 | 78 | 1010.6 |
| 20260510081503 | 9 | 195 | 0.0 | 0.0 | 0.00 | 0.00 | 0.00 | 78 | 1010.7 |
| 20260510081002 | 9 | 195 | 0.0 | 0.0 | 0.00 | 0.00 | 0.00 | 78 | 1010.5 |
| 20260510080502 | 9 | 195 | 0.0 | 0.0 | 0.00 | 0.00 | 0.00 | 78 | 1010.4 |
| 20260510080108 | 9 | 195 | 0.0 | 0.0 | 0.00 | 0.00 | 0.00 | 78 | 1010.4 |
| 20260510075600 | 9 | 195 | 0.0 | 0.0 | 0.00 | 0.00 | 0.00 | 78 | 1010.4 |
| 20260510075102 | 9 | 195 | 0.0 | 0.0 | 0.00 | 0.00 | 0.00 | 78 | 1010.3 |
| 20260510074619 | 10 | 195 | 0.0 | 0.0 | 0.00 | 0.00 | 0.00 | 78 | 1010.1 |
| 20260510074057 | 10 | 195 | 0.0 | 0.0 | 0.00 | 0.00 | 0.00 | 78 | 1010.1 |
| 20260510073556 | 10 | 195 | 0.0 | 0.0 | 0.00 | 0.00 | 0.00 | 78 | 1010.0 |
| 20260510073056 | 10 | 195 | 0.0 | 0.0 | 0.00 | 0.00 | 0.00 | 79 | 1010.1 |
| 20260510072555 | 10 | 195 | 0.0 | 0.0 | 0.00 | 0.00 | 0.00 | 79 | 1010.0 |
| 20260510072058 | 10 | 195 | 0.0 | 0.0 | 0.00 | 0.00 | 0.00 | 79 | 1010.1 |
| 20260510071600 | 10 | 195 | 0.0 | 0.0 | 0.00 | 0.00 | 0.00 | 79 | 1010.0 |
| 20260510071056 | 10 | 195 | 0.0 | 0.0 | 0.00 | 0.00 | 0.00 | 79 | 1010.0 |
| 20260510070553 | 10 | 195 | 0.0 | 0.0 | 0.00 | 0.00 | 0.00 | 79 | 1009.9 |
| 20260510070053 | 10 | 195 | 0.0 | 0.0 | 0.00 | 0.00 | 0.00 | 79 | 1009.9 |
| 20260510065552 | 10 | 195 | 0.0 | 0.0 | 0.00 | 0.00 | 0.00 | 79 | 1009.9 |
| 20260510065052 | 10 | 195 | 0.0 | 0.0 | 0.00 | 0.00 | 0.00 | 79 | 1009.9 |
| 20260510064608 | 10 | 195 | 0.0 | 0.0 | 0.00 | 0.00 | 0.00 | 79 | 1009.9 |
| 20260510064050 | 10 | 195 | 0.0 | 0.0 | 0.00 | 0.00 | 0.00 | 79 | 1009.9 |
| 20260510063551 | 11 | 195 | 0.0 | 0.0 | 0.00 | 0.00 | 0.00 | 79 | 1010.1 |
| 20260510063056 | 11 | 195 | 0.0 | 0.0 | 0.00 | 0.00 | 0.00 | 79 | 1010.0 |
| 20260510062548 | 11 | 195 | 0.0 | 0.0 | 0.00 | 0.00 | 0.00 | 79 | 1010.0 |
| 20260510062048 | 11 | 195 | 0.0 | 0.0 | 0.00 | 0.00 | 0.00 | 79 | 1010.1 |
| 20260510061548 | 11 | 195 | 0.0 | 0.0 | 0.00 | 0.00 | 0.00 | 79 | 1010.0 |
| 20260510061048 | 11 | 195 | 0.0 | 0.0 | 0.00 | 0.00 | 0.00 | 79 | 1010.2 |
| 20260510060548 | 11 | 195 | 0.0 | 0.0 | 0.00 | 0.00 | 0.00 | 79 | 1010.1 |
| 20260510060055 | 11 | 195 | 0.0 | 0.0 | 0.00 | 0.00 | 0.00 | 79 | 1010.1 |
| 20260510055546 | 11 | 195 | 0.0 | 0.0 | 0.00 | 0.00 | 0.00 | 79 | 1010.1 |
| 20260510055045 | 11 | 195 | 0.0 | 0.0 | 0.00 | 0.00 | 0.00 | 79 | 1010.1 |
| 20260510054545 | 11 | 195 | 0.0 | 0.0 | 0.00 | 0.00 | 0.00 | 78 | 1010.0 |
| 20260510054043 | 11 | 195 | 0.0 | 1.6 | 0.00 | 0.00 | 0.00 | 78 | 1010.0 |
| 20260510053543 | 11 | 195 | 0.0 | 0.0 | 0.00 | 0.00 | 0.00 | 78 | 1010.1 |
| 20260510053043 | 11 | 195 | 0.0 | 0.0 | 0.00 | 0.00 | 0.00 | 78 | 1010.1 |
| 20260510052542 | 11 | 195 | 0.0 | 0.0 | 0.00 | 0.00 | 0.00 | 78 | 1010.2 |
| 20260510052042 | 11 | 195 | 0.0 | 0.0 | 0.00 | 0.00 | 0.00 | 78 | 1010.1 |
| 20260510051552 | 12 | 195 | 0.0 | 0.0 | 0.00 | 0.00 | 0.00 | 78 | 1010.1 |
| 20260510051042 | 12 | 195 | 0.0 | 0.0 | 0.00 | 0.00 | 0.00 | 78 | 1010.1 |
| 20260510050540 | 12 | 195 | 0.0 | 0.0 | 0.00 | 0.00 | 0.00 | 77 | 1010.1 |
| 20260510050040 | 12 | 195 | 0.0 | 0.0 | 0.00 | 0.00 | 0.00 | 77 | 1010.1 |
| 20260510045541 | 12 | 195 | 0.0 | 0.0 | 0.00 | 0.00 | 0.00 | 77 | 1010.2 |
| 20260510045038 | 12 | 195 | 0.0 | 0.0 | 0.00 | 0.00 | 0.00 | 77 | 1010.1 |
| 20260510044541 | 12 | 195 | 0.0 | 0.0 | 0.00 | 0.00 | 0.00 | 76 | 1010.1 |
| 20260510044036 | 12 | 195 | 0.0 | 0.0 | 0.00 | 0.00 | 0.00 | 76 | 1009.9 |
| 20260510043536 | 12 | 195 | 0.0 | 0.0 | 0.00 | 0.00 | 0.00 | 76 | 1010.0 |
| 20260510043044 | 12 | 195 | 0.0 | 0.0 | 0.00 | 0.00 | 0.00 | 76 | 1010.0 |
| 20260510042534 | 12 | 195 | 0.0 | 0.0 | 0.00 | 0.00 | 0.00 | 76 | 1010.1 |
| 20260510042034 | 12 | 195 | 0.0 | 0.0 | 0.00 | 0.00 | 0.00 | 76 | 1010.0 |
| 20260510041540 | 12 | 195 | 0.0 | 0.0 | 0.00 | 0.00 | 0.00 | 76 | 1010.0 |
| 20260510041033 | 13 | 195 | 0.0 | 0.0 | 0.00 | 0.00 | 0.00 | 76 | 1009.7 |
| 20260510040532 | 13 | 195 | 0.0 | 0.0 | 0.00 | 0.00 | 0.00 | 75 | 1009.8 |
| 20260510040030 | 13 | 195 | 0.0 | 1.6 | 0.00 | 0.00 | 0.00 | 75 | 1009.9 |
| 20260510035533 | 13 | 195 | 0.0 | 1.6 | 0.00 | 0.00 | 0.00 | 75 | 1009.9 |
| 20260510035030 | 13 | 195 | 0.0 | 0.0 | 0.00 | 0.00 | 0.00 | 74 | 1009.9 |
| 20260510034530 | 13 | 195 | 0.0 | 1.6 | 0.00 | 0.00 | 0.00 | 74 | 1009.9 |
| 20260510034028 | 13 | 195 | 0.0 | 1.6 | 0.00 | 0.00 | 0.00 | 74 | 1009.8 |
| 20260510033532 | 13 | 195 | 0.0 | 1.6 | 0.00 | 0.00 | 0.00 | 74 | 1009.7 |
| 20260510033030 | 13 | 195 | 0.0 | 1.6 | 0.00 | 0.00 | 0.00 | 74 | 1009.7 |
| 20260510032529 | 13 | 195 | 0.0 | 1.6 | 0.00 | 0.00 | 0.00 | 73 | 1009.6 |
| 20260510032029 | 13 | 195 | 0.0 | 1.6 | 0.00 | 0.00 | 0.00 | 73 | 1009.5 |
| 20260510031529 | 13 | 195 | 0.0 | 1.6 | 0.00 | 0.00 | 0.00 | 73 | 1009.7 |
| 20260510031028 | 13 | 195 | 0.0 | 1.6 | 0.00 | 0.00 | 0.00 | 73 | 1009.5 |
| 20260510030531 | 14 | 195 | 0.0 | 1.6 | 0.00 | 0.00 | 0.00 | 72 | 1009.6 |
| 20260510030028 | 14 | 195 | 0.0 | 1.6 | 0.00 | 0.00 | 0.00 | 72 | 1009.6 |
| 20260510025528 | 14 | 195 | 0.0 | 1.6 | 0.00 | 0.00 | 0.00 | 71 | 1009.4 |
| 20260510025028 | 14 | 195 | 0.0 | 1.6 | 0.00 | 0.00 | 0.00 | 71 | 1009.6 |
| 20260510024528 | 14 | 195 | 0.0 | 1.6 | 0.00 | 0.00 | 0.00 | 71 | 1009.4 |
| 20260510024027 | 14 | 195 | 0.0 | 1.6 | 0.00 | 0.00 | 0.00 | 70 | 1009.2 |
| 20260510023527 | 15 | 195 | 0.0 | 1.6 | 0.00 | 0.00 | 0.00 | 70 | 1009.3 |
| 20260510023027 | 15 | 195 | 0.0 | 1.6 | 0.00 | 0.00 | 0.00 | 69 | 1009.3 |
| 20260510022527 | 15 | 195 | 0.0 | 0.0 | 0.00 | 0.00 | 0.00 | 69 | 1009.2 |
| 20260510022027 | 15 | 195 | 0.0 | 0.0 | 0.00 | 0.00 | 0.00 | 67 | 1009.1 |
| 20260510021529 | 15 | 195 | 0.0 | 1.6 | 0.00 | 0.00 | 0.00 | 67 | 1009.0 |
| 20260510021026 | 15 | 195 | 0.0 | 1.6 | 0.00 | 0.00 | 0.00 | 67 | 1008.8 |
| 20260510020527 | 15 | 195 | 0.0 | 1.6 | 0.00 | 0.00 | 0.00 | 66 | 1008.8 |
| 20260510020027 | 15 | 195 | 0.0 | 0.0 | 0.00 | 0.00 | 0.00 | 66 | 1008.8 |
| 20260510015527 | 16 | 195 | 0.0 | 1.6 | 0.00 | 0.00 | 0.00 | 65 | 1008.7 |
| 20260510015027 | 16 | 195 | 0.0 | 1.6 | 0.00 | 0.00 | 0.00 | 65 | 1008.7 |
| 20260510014528 | 16 | 195 | 0.0 | 1.6 | 0.00 | 0.00 | 0.00 | 64 | 1008.6 |
| 20260510014026 | 16 | 195 | 0.0 | 1.6 | 0.00 | 0.00 | 0.00 | 63 | 1008.4 |
| 20260510013526 | 16 | 195 | 0.0 | 0.0 | 0.00 | 0.00 | 0.00 | 62 | 1008.3 |
| 20260510013028 | 16 | 195 | 0.0 | 0.0 | 0.00 | 0.00 | 0.00 | 62 | 1008.2 |
| 20260510012526 | 17 | 195 | 0.0 | 0.0 | 0.00 | 0.00 | 0.00 | 60 | 1008.1 |
| 20260510012025 | 17 | 195 | 0.0 | 0.0 | 0.00 | 0.00 | 0.00 | 59 | 1008.1 |
| 20260510011534 | 17 | 195 | 0.0 | 0.0 | 0.00 | 0.00 | 0.00 | 58 | 1008.0 |
| 20260510011025 | 17 | 195 | 0.0 | 0.0 | 0.00 | 0.00 | 0.00 | 56 | 1008.0 |
| 20260510010525 | 18 | 195 | 0.0 | 0.0 | 0.00 | 0.00 | 0.00 | 55 | 1007.9 |
| 20260510010035 | 18 | 195 | 0.0 | 0.0 | 0.00 | 0.00 | 0.00 | 54 | 1007.8 |
| 20260510005525 | 18 | 195 | 0.0 | 0.0 | 0.00 | 0.00 | 0.00 | 54 | 1007.8 |
| 20260510005025 | 18 | 195 | 0.0 | 0.0 | 0.00 | 0.00 | 0.00 | 52 | 1007.7 |
| 20260510004525 | 19 | 195 | 0.0 | 0.0 | 0.00 | 0.00 | 0.00 | 51 | 1007.7 |
| 20260510004027 | 19 | 195 | 0.0 | 0.0 | 0.00 | 0.00 | 0.00 | 50 | 1007.7 |
| 20260510003525 | 20 | 195 | 0.0 | 0.0 | 0.00 | 0.00 | 0.00 | 51 | 1007.7 |
| 20260510003025 | 20 | 195 | 0.0 | 0.0 | 0.00 | 0.00 | 0.00 | 48 | 1007.6 |
| 20260510002524 | 20 | 195 | 0.0 | 1.6 | 0.00 | 0.00 | 0.00 | 49 | 1007.7 |
| 20260510002023 | 20 | 195 | 0.0 | 1.6 | 0.00 | 0.00 | 0.00 | 47 | 1007.6 |
| 20260510001526 | 21 | 195 | 0.0 | 1.6 | 0.00 | 0.00 | 0.00 | 47 | 1007.6 |
| 20260510001024 | 21 | 195 | 0.0 | 1.6 | 0.00 | 0.00 | 0.00 | 45 | 1007.5 |
| 20260510000524 | 21 | 195 | 0.0 | 3.2 | 0.00 | 0.00 | 0.00 | 43 | 1007.4 |
| 20260510000024 | 21 | 195 | 0.0 | 4.8 | 0.00 | 0.00 | 0.00 | 42 | 1007.3 |
| 20260509235524 | 21 | 196 | 0.0 | 4.8 | 0.00 | 0.00 | 0.00 | 42 | 1007.1 |
| 20260509235023 | 22 | 289 | 0.0 | 4.8 | 0.00 | 0.00 | 0.00 | 42 | 1007.1 |
| 20260509234525 | 22 | 169 | 0.0 | 6.4 | 0.00 | 0.00 | 0.00 | 43 | 1007.0 |
| 20260509234023 | 22 | 138 | 0.0 | 6.4 | 0.00 | 0.00 | 0.00 | 41 | 1006.9 |
| 20260509233522 | 22 | 84 | 0.0 | 3.2 | 0.00 | 0.00 | 0.00 | 41 | 1006.8 |
| 20260509233022 | 22 | 82 | 0.0 | 4.8 | 0.00 | 0.00 | 0.00 | 39 | 1006.8 |
| 20260509232526 | 22 | 86 | 0.0 | 4.8 | 0.00 | 0.00 | 0.00 | 40 | 1006.7 |
| 20260509232022 | 22 | 44 | 0.0 | 4.8 | 0.00 | 0.00 | 0.00 | 41 | 1006.7 |
| 20260509231529 | 23 | 46 | 1.6 | 4.8 | 0.00 | 0.00 | 0.00 | 39 | 1006.7 |
| 20260509231022 | 23 | 168 | 0.0 | 6.4 | 0.00 | 0.00 | 0.00 | 40 | 1006.7 |
| 20260509230522 | 23 | 223 | 0.0 | 3.2 | 0.00 | 0.00 | 0.00 | 40 | 1006.5 |
| 20260509230024 | 23 | 5 | 0.0 | 3.2 | 0.00 | 0.00 | 0.00 | 41 | 1006.3 |
| 20260509225521 | 23 | 5 | 0.0 | 6.4 | 0.00 | 0.00 | 0.00 | 41 | 1006.2 |
| 20260509225024 | 23 | 5 | 1.6 | 6.4 | 0.00 | 0.00 | 0.00 | 40 | 1006.3 |
| 20260509224521 | 23 | 34 | 0.0 | 4.8 | 0.00 | 0.00 | 0.00 | 40 | 1006.4 |
| 20260509224021 | 24 | 138 | 0.0 | 4.8 | 0.00 | 0.00 | 0.00 | 40 | 1006.4 |
| 20260509223521 | 24 | 347 | 0.0 | 3.2 | 0.00 | 0.00 | 0.00 | 42 | 1006.4 |
| 20260509223022 | 24 | 347 | 0.0 | 6.4 | 0.00 | 0.00 | 0.00 | 42 | 1006.3 |
| 20260509222520 | 24 | 164 | 1.6 | 11.3 | 0.00 | 0.00 | 0.00 | 39 | 1006.3 |
| 20260509222020 | 24 | 28 | 3.2 | 11.3 | 0.00 | 0.00 | 0.00 | 40 | 1006.4 |
| 20260509221531 | 25 | 98 | 0.0 | 8.0 | 0.00 | 0.00 | 0.00 | 42 | 1006.4 |
| 20260509221020 | 24 | 125 | 1.6 | 8.0 | 0.00 | 0.00 | 0.00 | 39 | 1006.4 |
| 20260509220519 | 24 | 23 | 1.6 | 8.0 | 0.00 | 0.00 | 0.00 | 39 | 1006.3 |
| 20260509220022 | 24 | 315 | 1.6 | 6.4 | 0.00 | 0.00 | 0.00 | 39 | 1006.3 |
| 20260509215519 | 25 | 184 | 0.0 | 6.4 | 0.00 | 0.00 | 0.00 | 40 | 1006.2 |
| 20260509215019 | 25 | 184 | 0.0 | 11.3 | 0.00 | 0.00 | 0.00 | 38 | 1006.2 |
| 20260509214518 | 25 | 23 | 1.6 | 11.3 | 0.00 | 0.00 | 0.00 | 38 | 1006.2 |
| 20260509214018 | 25 | 315 | 0.0 | 4.8 | 0.00 | 0.00 | 0.00 | 39 | 1006.2 |
| 20260509213518 | 25 | 5 | 0.0 | 4.8 | 0.00 | 0.00 | 0.00 | 38 | 1006.2 |
| 20260509213018 | 25 | 202 | 0.0 | 4.8 | 0.00 | 0.00 | 0.00 | 38 | 1006.1 |
| 20260509212521 | 25 | 196 | 1.6 | 8.0 | 0.00 | 0.00 | 0.00 | 38 | 1005.9 |
| 20260509212018 | 25 | 153 | 1.6 | 8.0 | 0.00 | 0.00 | 0.00 | 37 | 1006.0 |
| 20260509211518 | 25 | 132 | 1.6 | 4.8 | 0.00 | 0.00 | 0.00 | 38 | 1006.1 |
| 20260509211018 | 25 | 102 | 0.0 | 12.9 | 0.00 | 0.00 | 0.00 | 38 | 1005.9 |
| 20260509210520 | 25 | 167 | 1.6 | 12.9 | 0.00 | 0.00 | 0.00 | 37 | 1005.8 |
| 20260509210018 | 25 | 152 | 0.0 | 8.0 | 0.00 | 0.00 | 0.00 | 37 | 1005.8 |
| 20260509205516 | 25 | 127 | 1.6 | 8.0 | 0.00 | 0.00 | 0.00 | 36 | 1005.9 |
| 20260509205017 | 25 | 139 | 1.6 | 11.3 | 0.00 | 0.00 | 0.00 | 36 | 1005.8 |
| 20260509204518 | 25 | 72 | 3.2 | 11.3 | 0.00 | 0.00 | 0.00 | 37 | 1005.8 |
| 20260509204016 | 25 | 184 | 0.0 | 12.9 | 0.00 | 0.00 | 0.00 | 38 | 1005.8 |
| 20260509203515 | 25 | 360 | 3.2 | 12.9 | 0.00 | 0.00 | 0.00 | 36 | 1005.7 |
| 20260509203017 | 25 | 140 | 1.6 | 8.0 | 0.00 | 0.00 | 0.00 | 37 | 1005.7 |
| 20260509202515 | 25 | 161 | 0.0 | 8.0 | 0.00 | 0.00 | 0.00 | 36 | 1005.7 |
| 20260509202015 | 25 | 162 | 3.2 | 8.0 | 0.00 | 0.00 | 0.00 | 36 | 1005.7 |
| 20260509201515 | 26 | 90 | 0.0 | 9.7 | 0.00 | 0.00 | 0.00 | 38 | 1005.7 |
| 20260509201016 | 26 | 86 | 3.2 | 9.7 | 0.00 | 0.00 | 0.00 | 36 | 1005.8 |
| 20260509200514 | 26 | 219 | 1.6 | 8.0 | 0.00 | 0.00 | 0.00 | 37 | 1005.7 |
| 20260509200014 | 25 | 204 | 3.2 | 9.7 | 0.00 | 0.00 | 0.00 | 37 | 1005.7 |
| 20260509195513 | 25 | 209 | 0.0 | 11.3 | 0.00 | 0.00 | 0.00 | 37 | 1005.8 |
| 20260509195014 | 25 | 146 | 1.6 | 11.3 | 0.00 | 0.00 | 0.00 | 37 | 1005.8 |
| 20260509194516 | 25 | 123 | 1.6 | 9.7 | 0.00 | 0.00 | 0.00 | 36 | 1005.9 |
| 20260509194012 | 26 | 140 | 1.6 | 8.0 | 0.00 | 0.00 | 0.00 | 36 | 1006.0 |
| 20260509193514 | 26 | 38 | 1.6 | 6.4 | 0.00 | 0.00 | 0.00 | 35 | 1005.9 |
| 20260509193012 | 26 | 130 | 1.6 | 11.3 | 0.00 | 0.00 | 0.00 | 34 | 1005.8 |
| 20260509192512 | 26 | 143 | 1.6 | 11.3 | 0.00 | 0.00 | 0.00 | 35 | 1005.9 |
| 20260509192020 | 27 | 308 | 1.6 | 6.4 | 0.00 | 0.00 | 0.00 | 36 | 1005.7 |
| 20260509191511 | 27 | 182 | 1.6 | 8.0 | 0.00 | 0.00 | 0.00 | 34 | 1005.9 |
| 20260509191011 | 27 | 169 | 0.0 | 8.0 | 0.00 | 0.00 | 0.00 | 36 | 1006.0 |
| 20260509190510 | 26 | 202 | 0.0 | 4.8 | 0.00 | 0.00 | 0.00 | 35 | 1006.0 |
| 20260509190012 | 26 | 203 | 0.0 | 3.2 | 0.00 | 0.00 | 0.00 | 36 | 1006.2 |
| 20260509185513 | 26 | 94 | 1.6 | 6.4 | 0.00 | 0.00 | 0.00 | 34 | 1006.1 |
| 20260509185009 | 26 | 12 | 0.0 | 6.4 | 0.00 | 0.00 | 0.00 | 36 | 1006.1 |
| 20260509184521 | 26 | 336 | 1.6 | 6.4 | 0.00 | 0.00 | 0.00 | 35 | 1006.0 |
| 20260509184006 | 26 | 142 | 3.2 | 6.4 | 0.00 | 0.00 | 0.00 | 37 | 1006.1 |
| 20260509183505 | 26 | 149 | 0.0 | 4.8 | 0.00 | 0.00 | 0.00 | 40 | 1006.2 |
| 20260509183005 | 26 | 173 | 0.0 | 4.8 | 0.00 | 0.00 | 0.00 | 42 | 1006.3 |
| 20260509182504 | 26 | 173 | 1.6 | 6.4 | 0.00 | 0.00 | 0.00 | 45 | 1006.5 |
| 20260509182002 | 26 | 173 | 3.2 | 6.4 | 0.00 | 0.00 | 0.00 | 43 | 1006.4 |
| 20260509181501 | 26 | 207 | 1.6 | 4.8 | 0.00 | 0.00 | 0.00 | 45 | 1006.6 |
| 20260509181100 | 25 | 209 | 1.6 | 4.8 | 0.00 | 0.00 | 0.00 | 41 | 1006.5 |
| 20260509180600 | 25 | 236 | 0.0 | 8.0 | 0.00 | 0.00 | 0.00 | 42 | 1006.7 |
| 20260509180058 | 25 | 174 | 3.2 | 8.0 | 0.00 | 0.00 | 0.00 | 44 | 1006.7 |
| 20260509175557 | 25 | 134 | 1.6 | 8.0 | 0.00 | 0.00 | 0.00 | 46 | 1006.9 |
| 20260509175056 | 25 | 271 | 0.0 | 4.8 | 0.00 | 0.00 | 0.00 | 47 | 1007.0 |
| 20260509174554 | 24 | 140 | 0.0 | 4.8 | 0.00 | 0.00 | 0.00 | 49 | 1006.9 |
| 20260509174055 | 24 | 127 | 1.6 | 4.8 | 0.00 | 0.00 | 0.00 | 48 | 1007.0 |
| 20260509173552 | 24 | 191 | 1.6 | 4.8 | 0.00 | 0.00 | 0.00 | 48 | 1007.0 |
| 20260509173058 | 23 | 192 | 0.0 | 4.8 | 0.00 | 0.00 | 0.00 | 49 | 1007.0 |
| 20260509172552 | 23 | 192 | 0.0 | 4.8 | 0.00 | 0.00 | 0.00 | 50 | 1007.1 |
| 20260509172050 | 23 | 192 | 0.0 | 4.8 | 0.00 | 0.00 | 0.00 | 51 | 1007.2 |
| 20260509171604 | 23 | 200 | 0.0 | 6.4 | 0.00 | 0.00 | 0.00 | 53 | 1007.2 |
| 20260509171047 | 22 | 173 | 1.6 | 6.4 | 0.00 | 0.00 | 0.00 | 54 | 1007.3 |
| 20260509170546 | 22 | 146 | 1.6 | 4.8 | 0.00 | 0.00 | 0.00 | 54 | 1007.3 |
| 20260509170046 | 22 | 146 | 1.6 | 4.8 | 0.00 | 0.00 | 0.00 | 53 | 1007.6 |
| 20260509165545 | 22 | 146 | 0.0 | 3.2 | 0.00 | 0.00 | 0.00 | 55 | 1007.6 |
| 20260509165045 | 22 | 146 | 0.0 | 4.8 | 0.00 | 0.00 | 0.00 | 54 | 1007.6 |